Location: Observatoire
(46.1952°N, 5.3391°E)
Time: 22:23:41
(UTC+01:00)

A-11 Canister half - Pass Details

Date: 21 February 2026
Orbit: 1525 x 1683 km, 47.3° (Epoch: 5 March)

Event Time Altitude Azimuth Distance (km) Brightness Sun altitude
Rises 21:07:08 0° 288° (WNW) 4,684 12.7 -30.5°
Reaches altitude 10° 21:10:11 10° 287° (WNW) 3,695 11.9 -31.0°
Maximum altitude 21:19:24 71° 206° (SSW) 1,600 8.9 -32.5°
Enters shadow 21:20:42 64° 160° (SSE) 1,670 8.9 -32.7°
Drops below altitude 10° 21:28:42 10° 124° (SE) 3,725 - -34.0°
Sets 21:31:47 0° 123° (ESE) 4,724 - -34.5°
